Location: Lafig�re
(44.4503°N, 4.0357°E)
Time: 09:14:52
(UTC+00:00)

Tiros 1 - Pass Details

Date: 28 January 2021
Orbit: 630 x 664 km, 48.4° (Epoch: 07 March)

Event Time Altitude Azimuth Distance (km) Brightness Sun altitude
Rises 19:37:15 0° 286° (WNW) 2,927 11.6 -30.3°
Reaches altitude 10° 19:39:37 10° 291° (WNW) 2,015 10.5 -30.7°
Enters shadow 19:42:12 31° 305° (NW) 1,104 8.7 -31.1°
